Location: Roland
(31.1349°N, 85.4372°W)
Time: 04:18:58
(UTC+00:00)

Courier 1B - Pass Details

Date: 28 April 2021
Orbit: 962 x 1209 km, 28.3° (Epoch: 07 May)

Event Time Altitude Azimuth Distance (km) Brightness Sun altitude
Rises 21:10:51 0° 266° (W) 3,695 11.4 39.0°
Reaches altitude 10° 21:14:35 10° 247° (WSW) 2,713 11.0 38.2°
Maximum altitude 21:18:29 17° 210° (SSW) 2,251 10.0 37.3°
Drops below altitude 10° 21:22:20 10° 172° (S) 2,679 9.9 36.5°
Sets 21:26:01 0° 152° (SSE) 3,627 10.3 35.7°
